Blythe, CA

2:32 AM PDT on March 29, 2017 (GMT -0700)
Blythe

Weather History for KBLH - July, 2014

Change the Weather History Date:

Sunday, July 27, 2014

  Actual Average Record
Temperature  
Mean Temperature 88 °F -  
Max Temperature 93 °F 106 °F 120 °F (1998)
Min Temperature 84 °F 80 °F 72 °F (1990)
Cooling Degree Days 24    
Growing Degree Days 38 (Base 50)    
Moisture  
Dew Point 64 °F    
Average Humidity 46    
Maximum Humidity 58    
Minimum Humidity 34    
Precipitation  
Precipitation 0.00 in - - ()
Sea Level Pressure  
Sea Level Pressure 29.87 in    
Wind  
Wind Speed 16 mph (SSE)    
Max Wind Speed 30 mph    
Max Gust Speed 37 mph    
Visibility 8 miles    
Events Rain , Thunderstorm    
Averages and records for this station are not official NWS values.
T = Trace of Precipitation, MM = Missing Value Source: NWS Daily Summary

Daily Weather History Graph

Daily Weather History Graph

Search for Another Location

Airport or City:

Trip Planner

Search our weather history database for the weather conditions in past years. The results will help you decide how hot, cold, wet, or windy it might be!

Date:

Astronomy

Jul. 27, 2014 Rise Set
Actual Time 5:47 AM PDT 7:42 PM PDT
Civil Twilight 5:20 AM PDT 8:10 PM PDT
Nautical Twilight 4:46 AM PDT 8:43 PM PDT
Astronomical Twilight 4:10 AM PDT 9:19 PM PDT
Moon 6:32 AM PDT (7/27) 8:01 PM PDT (7/27)
Length of Visible Light 14h 50m
Length of Day
13h 55m
New Moon, 1% of the Moon is Illuminated
Jul 27
New Moon
Aug 3
First Quarter
Aug 10
Full
Aug 17
Last Quarter
Aug 25
New

Hourly Weather History & Observations

Time (PDT) Temp. Heat Index Dew Point Humidity Pressure Visibility Wind Dir Wind Speed Gust Speed Precip Events Conditions
12:52 AM 91.9 °F 93.3 °F 64.0 °F 39% 29.78 in 10.0 mi South 12.7 mph - N/A   Clear
1:52 AM 93.0 °F 93.0 °F 61.0 °F 34% 29.79 in 10.0 mi South 13.8 mph - N/A   Clear
2:52 AM 91.0 °F 91.9 °F 63.0 °F 39% 29.80 in 10.0 mi South 15.0 mph - N/A   Clear
3:52 AM 91.0 °F 90.9 °F 61.0 °F 36% 29.78 in 10.0 mi South 13.8 mph - N/A   Clear
4:16 AM 88.0 °F 88.7 °F 63.0 °F 43% 29.83 in 10.0 mi SE 12.7 mph - N/A   Clear
4:52 AM 89.1 °F 90.0 °F 63.0 °F 42% 29.83 in 10.0 mi South 9.2 mph - N/A   Clear
5:52 AM 89.1 °F 90.0 °F 63.0 °F 42% 29.85 in 10.0 mi SSW 9.2 mph - N/A Thunderstorm Partly Cloudy
6:22 AM 88.0 °F 90.3 °F 66.0 °F 48% 29.92 in 2.5 mi SE 27.6 mph 35.7 mph N/A Thunderstorm Unknown
6:29 AM 87.1 °F 89.2 °F 66.0 °F 49% 29.93 in 2.5 mi SE 29.9 mph 36.8 mph N/A Thunderstorm Unknown
6:37 AM 84.9 °F 87.6 °F 66.9 °F 55% 29.94 in 4.0 mi SE 25.3 mph 36.8 mph N/A Thunderstorm Unknown
6:48 AM 84.2 °F 86.6 °F 66.2 °F 55% 29.94 in 8.0 mi SE 19.6 mph - N/A Thunderstorm Partly Cloudy
6:52 AM 84.0 °F 87.0 °F 68.0 °F 58% 29.92 in 9.0 mi SE 19.6 mph - 0.00 in Rain Light Rain
7:23 AM 84.9 °F 87.6 °F 66.9 °F 55% 29.94 in 10.0 mi SSE 16.1 mph - 0.00 in Rain , Thunderstorm Light Thunderstorms and Rain
11:52 AM - - - N/A% 29.94 in - North - - N/A   Unknown
12:52 PM - - - N/A% 29.93 in - North - - N/A   Unknown
1:52 PM - - - N/A% 29.91 in - North - - N/A   Unknown
2:52 PM - - - N/A% 29.88 in - North - - N/A   Unknown
3:52 PM - - - N/A% 29.84 in - North - - N/A   Unknown
4:52 PM - - - N/A% 29.82 in - North - - N/A   Unknown
5:52 PM - - - N/A% 29.81 in - North - - N/A   Unknown
6:52 PM - - - N/A% 29.83 in - North - - N/A   Unknown
7:52 PM - - - N/A% 29.84 in - North - - N/A   Unknown
8:52 PM - - - N/A% 29.86 in - North - - N/A   Unknown
9:52 PM - - - N/A% 29.87 in - North - - N/A   Unknown
10:52 PM - - - N/A% 29.88 in - North - - N/A   Unknown
11:52 PM - - - N/A% 29.89 in - North - - N/A   Unknown